This is the latest recevied weather packets stored in our database for station/object K1RFS. If no packets are shown the sender has not sent any weather packets the latest 10 day(s).
| Time | Temp. | Humidity | Pressure | Rain* | Wind** | Luminosity | Snow |
|---|---|---|---|---|---|---|---|
| 1787953714 | 30.56° C | 30% | 1002.1 hPa | 0 mm | - | 108 W/m² | - |
| 1787953410 | 30° C | 29% | 1002.2 hPa | 0 mm | - | 444 W/m² | - |
| 1787953107 | 29.44° C | 30% | 1002.5 hPa | 0 mm | - | 152 W/m² | - |
| 1787952802 | 29.44° C | 31% | 1002.3 hPa | 0 mm | - | 121 W/m² | - |
| 1787952501 | 29.44° C | 31% | 1002.3 hPa | 0 mm | - | 111 W/m² | - |
| 1787952199 | 29.44° C | 30% | 1002.6 hPa | 0 mm | - | 137 W/m² | - |
| 1787951896 | 30° C | 30% | 1002.6 hPa | 0 mm | - | 96 W/m² | - |
| 1787951592 | 30° C | 30% | 1002.9 hPa | 0 mm | - | 170 W/m² | - |
| 1787951288 | 30° C | 31% | 1002.8 hPa | 0 mm | - | 139 W/m² | - |
| 1787950984 | 30° C | 31% | 1003 hPa | 0 mm | - | 196 W/m² | - |
| 1787950679 | 30° C | 30% | 1002.9 hPa | 0 mm | - | 177 W/m² | - |
| 1787950375 | 30° C | 31% | 1003.3 hPa | 0 mm | - | 128 W/m² | - |
| 1787950071 | 30.56° C | 30% | 1003.4 hPa | 0 mm | - | 165 W/m² | - |
| 1787949766 | 31.11° C | 29% | 1003.7 hPa | 0 mm | - | 563 W/m² | - |
| 1787949466 | 31.11° C | 30% | 1003.7 hPa | 0 mm | - | 299 W/m² | - |
| 1787949161 | 31.67° C | 29% | 1003.7 hPa | 0 mm | - | 604 W/m² | - |
| 1787948857 | 32.22° C | 29% | 1003.8 hPa | 0 mm | - | 634 W/m² | - |
| 1787948557 | 31.67° C | 28% | 1003.8 hPa | 0 mm | - | 650 W/m² | - |
| 1787948252 | 31.11° C | 29% | 1003.6 hPa | 0 mm | - | 605 W/m² | - |
| 1787947951 | 31.11° C | 29% | 1004 hPa | 0 mm | - | 600 W/m² | - |
| 1787947646 | 31.11° C | 29% | 1004 hPa | 0 mm | - | 602 W/m² | - |
| 1787947345 | 31.67° C | 29% | 1004 hPa | 0 mm | - | 620 W/m² | - |
| 1787947045 | 31.11° C | 30% | 1004.2 hPa | 0 mm | - | 620 W/m² | - |
| 1787946743 | 30.56° C | 30% | 1004.5 hPa | 0 mm | - | 610 W/m² | - |
| 1787946438 | 31.11° C | 30% | 1004.5 hPa | 0 mm | - | 590 W/m² | - |
* Rain latest hour (hover to see other rain measurements)
** Current wind speed in m/s (hover to see current wind gust speed)